User: anonymous   Login
Location: PACMO
(41.3967°N, 90.3760°W)
Time: 06:40:20
(UTC-06:00)
Language:

NOAA 19 - Orbit

View from above orbital plane
View from above orbital plane
View from above satellite
View from above satellite

Ground track
Ground track

The orbit data is extracted from the following two-line orbital elements,

1 33591U 09005A   15061.51451160  .00000317  00000-0  19773-3 0  9992
2 33591 098.9782 011.2080 0014973 109.1102 251.1691 14.11883282312443
Epoch (UTC): 02 March 2015 12:20:53
Eccentricity: 0.0014973
inclination: 98.9782°
perigee height: 842 km
apogee height: 864 km
right ascension of ascending node: 11.2080°
argument of perigee: 109.1102°
revolutions per day: 14.11883282
mean anomaly at epoch: 251.1691°
orbit number at epoch: 31244

The dashed part of the orbit path shows where the satellite is in the earth's shadow,  

DLR